Location: Newark
(20.5800°N, 87.1197°W)
Time: 03:23:56
(UTC+00:00)

N. Korean satellite - Pass Details

Date: 11 August 2020
Orbit: 455 x 503 km, 97.2° (Epoch: 22 September)

Event Time Altitude Azimuth Distance (km) Brightness Sun altitude
Rises 10:56:43 0° 18° (NNE) 2,531 10.8 -7.5°
Reaches altitude 10° 10:58:48 10° 23° (NNE) 1,659 9.9 -7.1°
Maximum altitude 11:02:17 51° 100° (E) 620 7.6 -6.3°
Drops below altitude 10° 11:05:48 10° 177° (S) 1,679 9.1 -5.5°
Sets 11:07:55 0° 182° (S) 2,566 10.0 -5.0°
